Toronto City, Ontario

10:08 PM EST on February 10, 2016 (GMT -0500)
Toronto City

Weather History for 71508 - July, 2013

Change the Weather History Date:

Thursday, July 11, 2013

  Actual Average Record
Temperature  
Mean Temperature 68 °F -  
Max Temperature 76 °F - - ()
Min Temperature 61 °F - - ()
Cooling Degree Days 4    
Growing Degree Days 18 (Base 50)    
Moisture  
Dew Point 57 °F    
Average Humidity 64    
Maximum Humidity 75    
Minimum Humidity 55    
Precipitation  
Precipitation 0.02 in - - ()
Sea Level Pressure  
Sea Level Pressure 29.96 in    
Wind  
Wind Speed - ()    
Max Wind Speed -    
Max Gust Speed -    
T = Trace of Precipitation, MM = Missing Value Source: Averaged Metar Reports

Daily Weather History Graph

Daily Weather History Graph

Search for Another Location

Airport or City:

Trip Planner

Search our weather history database for the weather conditions in past years. The results will help you decide how hot, cold, wet, or windy it might be!

Date:

Astronomy

Jul. 11, 2013 Rise Set
Actual Time 5:46 AM EDT 8:59 PM EDT
Civil Twilight 5:11 AM EDT 9:34 PM EDT
Nautical Twilight 4:26 AM EDT 10:19 PM EDT
Astronomical Twilight 3:31 AM EDT 11:14 PM EDT
Moon 9:11 AM EDT 10:30 PM EDT
Length of Visible Light 16h 22m
Length of Day
15h 12m
Waxing Crescent, 10% of the Moon is Illuminated
Jul 11
Waxing Crescent
Jul 15
First Quarter
Jul 22
Full
Jul 29
Last Quarter
Aug 6
New

Hourly Weather History & Observations

Time (EDT) Temp. Dew Point Humidity Pressure Visibility Wind Dir Wind Speed Gust Speed Precip Events Conditions
12:00 AM 67.1 °F 54.5 °F 64% 29.86 in - North - - N/A   Unknown
1:00 AM 66.0 °F 54.5 °F 66% 29.86 in - North - - N/A   Unknown
2:00 AM 65 °F 54 °F 60% 29.86 in - Calm Calm - -  
2:00 AM 64.9 °F 54.3 °F 68% 29.86 in - North - - N/A   Unknown
3:00 AM 64.2 °F 53.6 °F 68% 29.86 in - North - - N/A   Unknown
4:00 AM 63.3 °F 53.2 °F 70% 29.88 in - North - - N/A   Unknown
5:00 AM 62.6 °F 53.4 °F 72% 29.90 in - North - - N/A   Unknown
6:00 AM 61.9 °F 53.8 °F 75% 29.91 in - North - - N/A   Unknown
7:00 AM 62.8 °F 54.5 °F 74% 29.94 in - North - - 0.02 in   Unknown
8:00 AM 65 °F 54 °F 60% 29.95 in - Calm Calm - -  
8:00 AM 64.8 °F 54.3 °F 69% 29.95 in - North - - N/A   Unknown
9:00 AM 67.8 °F 56.5 °F 67% 29.96 in - North - - N/A   Unknown
10:00 AM 71.2 °F 56.1 °F 59% 29.97 in - North - - N/A   Unknown
11:00 AM 72.5 °F 59.0 °F 62% 29.98 in - North - - N/A   Unknown
12:00 PM 73.2 °F 56.7 °F 56% 29.99 in - North - - N/A   Unknown
1:00 PM 73.9 °F 57.0 °F 55% 29.99 in - North - - N/A   Unknown
2:00 PM 73 °F 60 °F 55% 29.98 in - Calm Calm - -  
2:00 PM 73.2 °F 60.1 °F 63% 29.98 in - North - - N/A   Unknown
3:00 PM 72.3 °F 59.0 °F 63% 29.99 in - North - - N/A   Unknown
4:00 PM 72.7 °F 60.4 °F 65% 29.99 in - North - - N/A   Unknown
5:00 PM 72.9 °F 60.3 °F 65% 29.99 in - North - - N/A   Unknown
6:00 PM 75.0 °F 60.1 °F 60% 29.99 in - North - - N/A   Unknown
7:00 PM 75.0 °F 58.6 °F 57% 30.00 in - North - - N/A   Unknown
8:00 PM 66 °F 58 °F 67% 30.06 in - Calm Calm - -  
8:00 PM 73.8 °F 58.1 °F 58% 30.01 in - North - - N/A   Unknown
9:00 PM 70.7 °F 56.8 °F 61% 30.02 in - North - - N/A   Unknown
10:00 PM 68.5 °F 56.3 °F 65% 30.04 in - North - - N/A   Unknown
11:00 PM 66.7 °F 56.5 °F 70% 30.04 in - North - - N/A   Unknown